Index of /20260508/WXO-DD/model_rdps/10km/12/068
Name Last modified Size Description
Parent Directory -
20260508T12Z_MSC_RDPS_AbsoluteVorticity_IsbL-0250_RLatLon0.09_PT068H.grib2 2026-05-08 15:01 611K
20260508T12Z_MSC_RDPS_AbsoluteVorticity_IsbL-0500_RLatLon0.09_PT068H.grib2 2026-05-08 15:01 566K
20260508T12Z_MSC_RDPS_AbsoluteVorticity_IsbL-0700_RLatLon0.09_PT068H.grib2 2026-05-08 15:01 621K
20260508T12Z_MSC_RDPS_AbsoluteVorticity_IsbL-0850_RLatLon0.09_PT068H.grib2 2026-05-08 15:01 780K
20260508T12Z_MSC_RDPS_AirTemp_AGL-120m_RLatLon0.09_PT068H.grib2 2026-05-08 15:01 375K
20260508T12Z_MSC_RDPS_AirTemp_AGL-2m_RLatLon0.09_PT068H.grib2 2026-05-08 15:01 625K
20260508T12Z_MSC_RDPS_AirTemp_AGL-40m_RLatLon0.09_PT068H.grib2 2026-05-08 15:01 390K
20260508T12Z_MSC_RDPS_AirTemp_AGL-80m_RLatLon0.09_PT068H.grib2 2026-05-08 15:01 381K
20260508T12Z_MSC_RDPS_AirTemp_IsbL-0001_RLatLon0.09_PT068H.grib2 2026-05-08 15:01 301K
20260508T12Z_MSC_RDPS_AirTemp_IsbL-0005_RLatLon0.09_PT068H.grib2 2026-05-08 15:01 291K
20260508T12Z_MSC_RDPS_AirTemp_IsbL-0010_RLatLon0.09_PT068H.grib2 2026-05-08 15:01 391K
20260508T12Z_MSC_RDPS_AirTemp_IsbL-0020_RLatLon0.09_PT068H.grib2 2026-05-08 15:01 320K
20260508T12Z_MSC_RDPS_AirTemp_IsbL-0030_RLatLon0.09_PT068H.grib2 2026-05-08 15:01 341K
20260508T12Z_MSC_RDPS_AirTemp_IsbL-0050_RLatLon0.09_PT068H.grib2 2026-05-08 15:01 309K
20260508T12Z_MSC_RDPS_AirTemp_IsbL-0100_RLatLon0.09_PT068H.grib2 2026-05-08 15:01 389K
20260508T12Z_MSC_RDPS_AirTemp_IsbL-0150_RLatLon0.09_PT068H.grib2 2026-05-08 15:01 403K
20260508T12Z_MSC_RDPS_AirTemp_IsbL-0175_RLatLon0.09_PT068H.grib2 2026-05-08 15:01 398K
20260508T12Z_MSC_RDPS_AirTemp_IsbL-0200_RLatLon0.09_PT068H.grib2 2026-05-08 15:01 403K
20260508T12Z_MSC_RDPS_AirTemp_IsbL-0225_RLatLon0.09_PT068H.grib2 2026-05-08 15:01 410K
20260508T12Z_MSC_RDPS_AirTemp_IsbL-0250_RLatLon0.09_PT068H.grib2 2026-05-08 15:01 424K
20260508T12Z_MSC_RDPS_AirTemp_IsbL-0275_RLatLon0.09_PT068H.grib2 2026-05-08 15:01 407K
20260508T12Z_MSC_RDPS_AirTemp_IsbL-0300_RLatLon0.09_PT068H.grib2 2026-05-08 15:01 412K
20260508T12Z_MSC_RDPS_AirTemp_IsbL-0350_RLatLon0.09_PT068H.grib2 2026-05-08 15:01 422K
20260508T12Z_MSC_RDPS_AirTemp_IsbL-0400_RLatLon0.09_PT068H.grib2 2026-05-08 15:01 426K
20260508T12Z_MSC_RDPS_AirTemp_IsbL-0450_RLatLon0.09_PT068H.grib2 2026-05-08 15:01 435K
20260508T12Z_MSC_RDPS_AirTemp_IsbL-0500_RLatLon0.09_PT068H.grib2 2026-05-08 15:01 446K
20260508T12Z_MSC_RDPS_AirTemp_IsbL-0550_RLatLon0.09_PT068H.grib2 2026-05-08 15:01 463K
20260508T12Z_MSC_RDPS_AirTemp_IsbL-0600_RLatLon0.09_PT068H.grib2 2026-05-08 15:01 483K
20260508T12Z_MSC_RDPS_AirTemp_IsbL-0650_RLatLon0.09_PT068H.grib2 2026-05-08 15:01 498K
20260508T12Z_MSC_RDPS_AirTemp_IsbL-0700_RLatLon0.09_PT068H.grib2 2026-05-08 15:01 521K
20260508T12Z_MSC_RDPS_AirTemp_IsbL-0750_RLatLon0.09_PT068H.grib2 2026-05-08 15:01 562K
20260508T12Z_MSC_RDPS_AirTemp_IsbL-0800_RLatLon0.09_PT068H.grib2 2026-05-08 15:01 577K
20260508T12Z_MSC_RDPS_AirTemp_IsbL-0850_RLatLon0.09_PT068H.grib2 2026-05-08 15:01 633K
20260508T12Z_MSC_RDPS_AirTemp_IsbL-0875_RLatLon0.09_PT068H.grib2 2026-05-08 15:01 651K
20260508T12Z_MSC_RDPS_AirTemp_IsbL-0900_RLatLon0.09_PT068H.grib2 2026-05-08 15:01 526K
20260508T12Z_MSC_RDPS_AirTemp_IsbL-0925_RLatLon0.09_PT068H.grib2 2026-05-08 15:01 524K
20260508T12Z_MSC_RDPS_AirTemp_IsbL-0950_RLatLon0.09_PT068H.grib2 2026-05-08 15:01 526K
20260508T12Z_MSC_RDPS_AirTemp_IsbL-0970_RLatLon0.09_PT068H.grib2 2026-05-08 15:01 520K
20260508T12Z_MSC_RDPS_AirTemp_IsbL-0985_RLatLon0.09_PT068H.grib2 2026-05-08 15:01 510K
20260508T12Z_MSC_RDPS_AirTemp_IsbL-1000_RLatLon0.09_PT068H.grib2 2026-05-08 15:01 492K
20260508T12Z_MSC_RDPS_AirTemp_IsbL-1015_RLatLon0.09_PT068H.grib2 2026-05-08 15:01 497K
20260508T12Z_MSC_RDPS_Albedo_Sfc_RLatLon0.09_PT068H.grib2 2026-05-08 15:01 159K
20260508T12Z_MSC_RDPS_CAPE_Sfc_RLatLon0.09_PT068H.grib2 2026-05-08 15:01 1.7M
20260508T12Z_MSC_RDPS_CIN_Sfc_RLatLon0.09_PT068H.grib2 2026-05-08 15:01 1.3M
20260508T12Z_MSC_RDPS_CloudWater_EAtm_RLatLon0.09_PT068H.grib2 2026-05-08 15:01 227K
20260508T12Z_MSC_RDPS_ConvectivePrecip-Accum_Sfc_RLatLon0.09_PT068H.grib2 2026-05-08 15:01 1.3M
20260508T12Z_MSC_RDPS_DewPointDepression_AGL-2m_RLatLon0.09_PT068H.grib2 2026-05-08 15:01 397K
20260508T12Z_MSC_RDPS_DewPointDepression_IsbL-0001_RLatLon0.09_PT068H.grib2 2026-05-08 15:01 193
20260508T12Z_MSC_RDPS_DewPointDepression_IsbL-0005_RLatLon0.09_PT068H.grib2 2026-05-08 15:01 193
20260508T12Z_MSC_RDPS_DewPointDepression_IsbL-0010_RLatLon0.09_PT068H.grib2 2026-05-08 15:01 193
20260508T12Z_MSC_RDPS_DewPointDepression_IsbL-0020_RLatLon0.09_PT068H.grib2 2026-05-08 15:01 193
20260508T12Z_MSC_RDPS_DewPointDepression_IsbL-0030_RLatLon0.09_PT068H.grib2 2026-05-08 15:01 193
20260508T12Z_MSC_RDPS_DewPointDepression_IsbL-0050_RLatLon0.09_PT068H.grib2 2026-05-08 15:01 78K
20260508T12Z_MSC_RDPS_DewPointDepression_IsbL-0100_RLatLon0.09_PT068H.grib2 2026-05-08 15:01 110K
20260508T12Z_MSC_RDPS_DewPointDepression_IsbL-0150_RLatLon0.09_PT068H.grib2 2026-05-08 15:01 146K
20260508T12Z_MSC_RDPS_DewPointDepression_IsbL-0175_RLatLon0.09_PT068H.grib2 2026-05-08 15:01 167K
20260508T12Z_MSC_RDPS_DewPointDepression_IsbL-0200_RLatLon0.09_PT068H.grib2 2026-05-08 15:01 213K
20260508T12Z_MSC_RDPS_DewPointDepression_IsbL-0225_RLatLon0.09_PT068H.grib2 2026-05-08 15:01 259K
20260508T12Z_MSC_RDPS_DewPointDepression_IsbL-0250_RLatLon0.09_PT068H.grib2 2026-05-08 15:01 302K
20260508T12Z_MSC_RDPS_DewPointDepression_IsbL-0275_RLatLon0.09_PT068H.grib2 2026-05-08 15:01 308K
20260508T12Z_MSC_RDPS_DewPointDepression_IsbL-0300_RLatLon0.09_PT068H.grib2 2026-05-08 15:01 325K
20260508T12Z_MSC_RDPS_DewPointDepression_IsbL-0350_RLatLon0.09_PT068H.grib2 2026-05-08 15:01 331K
20260508T12Z_MSC_RDPS_DewPointDepression_IsbL-0400_RLatLon0.09_PT068H.grib2 2026-05-08 15:01 343K
20260508T12Z_MSC_RDPS_DewPointDepression_IsbL-0450_RLatLon0.09_PT068H.grib2 2026-05-08 15:01 352K
20260508T12Z_MSC_RDPS_DewPointDepression_IsbL-0500_RLatLon0.09_PT068H.grib2 2026-05-08 15:01 356K
20260508T12Z_MSC_RDPS_DewPointDepression_IsbL-0550_RLatLon0.09_PT068H.grib2 2026-05-08 15:01 368K
20260508T12Z_MSC_RDPS_DewPointDepression_IsbL-0600_RLatLon0.09_PT068H.grib2 2026-05-08 15:01 381K
20260508T12Z_MSC_RDPS_DewPointDepression_IsbL-0650_RLatLon0.09_PT068H.grib2 2026-05-08 15:01 387K
20260508T12Z_MSC_RDPS_DewPointDepression_IsbL-0700_RLatLon0.09_PT068H.grib2 2026-05-08 15:01 393K
20260508T12Z_MSC_RDPS_DewPointDepression_IsbL-0750_RLatLon0.09_PT068H.grib2 2026-05-08 15:01 405K
20260508T12Z_MSC_RDPS_DewPointDepression_IsbL-0800_RLatLon0.09_PT068H.grib2 2026-05-08 15:01 442K
20260508T12Z_MSC_RDPS_DewPointDepression_IsbL-0850_RLatLon0.09_PT068H.grib2 2026-05-08 15:01 467K
20260508T12Z_MSC_RDPS_DewPointDepression_IsbL-0875_RLatLon0.09_PT068H.grib2 2026-05-08 15:01 461K
20260508T12Z_MSC_RDPS_DewPointDepression_IsbL-0900_RLatLon0.09_PT068H.grib2 2026-05-08 15:01 446K
20260508T12Z_MSC_RDPS_DewPointDepression_IsbL-0925_RLatLon0.09_PT068H.grib2 2026-05-08 15:01 436K
20260508T12Z_MSC_RDPS_DewPointDepression_IsbL-0950_RLatLon0.09_PT068H.grib2 2026-05-08 15:01 435K
20260508T12Z_MSC_RDPS_DewPointDepression_IsbL-0970_RLatLon0.09_PT068H.grib2 2026-05-08 15:01 431K
20260508T12Z_MSC_RDPS_DewPointDepression_IsbL-0985_RLatLon0.09_PT068H.grib2 2026-05-08 15:01 427K
20260508T12Z_MSC_RDPS_DewPointDepression_IsbL-1000_RLatLon0.09_PT068H.grib2 2026-05-08 15:01 420K
20260508T12Z_MSC_RDPS_DewPointDepression_IsbL-1015_RLatLon0.09_PT068H.grib2 2026-05-08 15:01 409K
20260508T12Z_MSC_RDPS_DewPoint_AGL-2m_RLatLon0.09_PT068H.grib2 2026-05-08 15:01 389K
20260508T12Z_MSC_RDPS_DownwardLongwaveRadiationFlux-Accum_Sfc_RLatLon0.09_PT068H.grib2 2026-05-08 15:01 421K
20260508T12Z_MSC_RDPS_DownwardShortwaveRadiationFlux-Accum_NTAtm_RLatLon0.09_PT068H.grib2 2026-05-08 15:01 134K
20260508T12Z_MSC_RDPS_DownwardShortwaveRadiationFlux-Accum_Sfc_RLatLon0.09_PT068H.grib2 2026-05-08 15:01 628K
20260508T12Z_MSC_RDPS_FreezingRain-Accum1h_Sfc_RLatLon0.09_PT068H.grib2 2026-05-08 15:01 42K
20260508T12Z_MSC_RDPS_FreezingRain-Accum_Sfc_RLatLon0.09_PT068H.grib2 2026-05-08 15:01 199K
20260508T12Z_MSC_RDPS_GeopotentialHeight_IsbL-0001_RLatLon0.09_PT068H.grib2 2026-05-08 15:01 242K
20260508T12Z_MSC_RDPS_GeopotentialHeight_IsbL-0005_RLatLon0.09_PT068H.grib2 2026-05-08 15:01 309K
20260508T12Z_MSC_RDPS_GeopotentialHeight_IsbL-0010_RLatLon0.09_PT068H.grib2 2026-05-08 15:01 310K
20260508T12Z_MSC_RDPS_GeopotentialHeight_IsbL-0020_RLatLon0.09_PT068H.grib2 2026-05-08 15:01 310K
20260508T12Z_MSC_RDPS_GeopotentialHeight_IsbL-0030_RLatLon0.09_PT068H.grib2 2026-05-08 15:01 312K
20260508T12Z_MSC_RDPS_GeopotentialHeight_IsbL-0050_RLatLon0.09_PT068H.grib2 2026-05-08 15:01 312K
20260508T12Z_MSC_RDPS_GeopotentialHeight_IsbL-0100_RLatLon0.09_PT068H.grib2 2026-05-08 15:01 286K
20260508T12Z_MSC_RDPS_GeopotentialHeight_IsbL-0150_RLatLon0.09_PT068H.grib2 2026-05-08 15:01 225K
20260508T12Z_MSC_RDPS_GeopotentialHeight_IsbL-0175_RLatLon0.09_PT068H.grib2 2026-05-08 15:01 228K
20260508T12Z_MSC_RDPS_GeopotentialHeight_IsbL-0200_RLatLon0.09_PT068H.grib2 2026-05-08 15:01 230K
20260508T12Z_MSC_RDPS_GeopotentialHeight_IsbL-0225_RLatLon0.09_PT068H.grib2 2026-05-08 15:01 233K
20260508T12Z_MSC_RDPS_GeopotentialHeight_IsbL-0250_RLatLon0.09_PT068H.grib2 2026-05-08 15:01 234K
20260508T12Z_MSC_RDPS_GeopotentialHeight_IsbL-0275_RLatLon0.09_PT068H.grib2 2026-05-08 15:01 234K
20260508T12Z_MSC_RDPS_GeopotentialHeight_IsbL-0300_RLatLon0.09_PT068H.grib2 2026-05-08 15:01 234K
20260508T12Z_MSC_RDPS_GeopotentialHeight_IsbL-0350_RLatLon0.09_PT068H.grib2 2026-05-08 15:01 231K
20260508T12Z_MSC_RDPS_GeopotentialHeight_IsbL-0400_RLatLon0.09_PT068H.grib2 2026-05-08 15:01 301K
20260508T12Z_MSC_RDPS_GeopotentialHeight_IsbL-0450_RLatLon0.09_PT068H.grib2 2026-05-08 15:01 296K
20260508T12Z_MSC_RDPS_GeopotentialHeight_IsbL-0500_RLatLon0.09_PT068H.grib2 2026-05-08 15:01 290K
20260508T12Z_MSC_RDPS_GeopotentialHeight_IsbL-0550_RLatLon0.09_PT068H.grib2 2026-05-08 15:01 286K
20260508T12Z_MSC_RDPS_GeopotentialHeight_IsbL-0600_RLatLon0.09_PT068H.grib2 2026-05-08 15:01 282K
20260508T12Z_MSC_RDPS_GeopotentialHeight_IsbL-0650_RLatLon0.09_PT068H.grib2 2026-05-08 15:01 253K
20260508T12Z_MSC_RDPS_GeopotentialHeight_IsbL-0700_RLatLon0.09_PT068H.grib2 2026-05-08 15:01 253K
20260508T12Z_MSC_RDPS_GeopotentialHeight_IsbL-0750_RLatLon0.09_PT068H.grib2 2026-05-08 15:01 255K
20260508T12Z_MSC_RDPS_GeopotentialHeight_IsbL-0800_RLatLon0.09_PT068H.grib2 2026-05-08 15:01 347K
20260508T12Z_MSC_RDPS_GeopotentialHeight_IsbL-0850_RLatLon0.09_PT068H.grib2 2026-05-08 15:01 358K
20260508T12Z_MSC_RDPS_GeopotentialHeight_IsbL-0875_RLatLon0.09_PT068H.grib2 2026-05-08 15:01 358K
20260508T12Z_MSC_RDPS_GeopotentialHeight_IsbL-0900_RLatLon0.09_PT068H.grib2 2026-05-08 15:01 362K
20260508T12Z_MSC_RDPS_GeopotentialHeight_IsbL-0925_RLatLon0.09_PT068H.grib2 2026-05-08 15:01 365K
20260508T12Z_MSC_RDPS_GeopotentialHeight_IsbL-0950_RLatLon0.09_PT068H.grib2 2026-05-08 15:01 366K
20260508T12Z_MSC_RDPS_GeopotentialHeight_IsbL-0970_RLatLon0.09_PT068H.grib2 2026-05-08 15:01 371K
20260508T12Z_MSC_RDPS_GeopotentialHeight_IsbL-0985_RLatLon0.09_PT068H.grib2 2026-05-08 15:01 380K
20260508T12Z_MSC_RDPS_GeopotentialHeight_IsbL-1000_RLatLon0.09_PT068H.grib2 2026-05-08 15:01 392K
20260508T12Z_MSC_RDPS_GeopotentialHeight_IsbL-1015_RLatLon0.09_PT068H.grib2 2026-05-08 15:01 409K
20260508T12Z_MSC_RDPS_HighLowPressure_MSL_RLatLon0.09_PT068H.json 2026-05-08 14:53 20K
20260508T12Z_MSC_RDPS_Humidex_Sfc_RLatLon0.09_PT068H.grib2 2026-05-08 15:01 2.4M
20260508T12Z_MSC_RDPS_IcePellets-Accum1h_Sfc_RLatLon0.09_PT068H.grib2 2026-05-08 15:01 14K
20260508T12Z_MSC_RDPS_IcePellets-Accum_Sfc_RLatLon0.09_PT068H.grib2 2026-05-08 15:01 46K
20260508T12Z_MSC_RDPS_KIndex_Sfc_RLatLon0.09_PT068H.grib2 2026-05-08 15:01 2.5M
20260508T12Z_MSC_RDPS_LatentHeatNetFlux_Sfc_RLatLon0.09_PT068H.grib2 2026-05-08 15:01 323K
20260508T12Z_MSC_RDPS_LiftedIndex-MU-VT_IsbL-0500_RLatLon0.09_PT068H.grib2 2026-05-08 15:01 2.4M
20260508T12Z_MSC_RDPS_NetLongwaveRadiationFlux-Accum_Sfc_RLatLon0.09_PT068H.grib2 2026-05-08 15:01 470K
20260508T12Z_MSC_RDPS_NetShortwaveRadiationFlux-Accum_Sfc_RLatLon0.09_PT068H.grib2 2026-05-08 15:01 629K
20260508T12Z_MSC_RDPS_PlanetaryBoundaryLayerHeight_Sfc_RLatLon0.09_PT068H.grib2 2026-05-08 15:01 1.1M
20260508T12Z_MSC_RDPS_Precip-Accum1h_Sfc_RLatLon0.09_PT068H.grib2 2026-05-08 15:01 1.3M
20260508T12Z_MSC_RDPS_Precip-Accum_Sfc_RLatLon0.09_PT068H.grib2 2026-05-08 15:01 2.1M
20260508T12Z_MSC_RDPS_PrecipRate_Sfc_RLatLon0.09_PT068H.grib2 2026-05-08 15:01 190K
20260508T12Z_MSC_RDPS_PrecipType-Instant_Sfc_RLatLon0.09_PT068H.grib2 2026-05-08 15:01 627K
20260508T12Z_MSC_RDPS_Pressure-Trend3h_Sfc_RLatLon0.09_PT068H.grib2 2026-05-08 15:01 1.2M
20260508T12Z_MSC_RDPS_Pressure_MSL_RLatLon0.09_PT068H.grib2 2026-05-08 15:01 323K
20260508T12Z_MSC_RDPS_Pressure_PVU-1.5_RLatLon0.09_PT068H.grib2 2026-05-08 15:01 2.5M
20260508T12Z_MSC_RDPS_Pressure_PVU-1_RLatLon0.09_PT068H.grib2 2026-05-08 15:01 2.4M
20260508T12Z_MSC_RDPS_Pressure_PVU-2_RLatLon0.09_PT068H.grib2 2026-05-08 15:01 2.4M
20260508T12Z_MSC_RDPS_Pressure_Sfc_RLatLon0.09_PT068H.grib2 2026-05-08 15:01 498K
20260508T12Z_MSC_RDPS_RadiativeTemp_Sfc_RLatLon0.09_PT068H.grib2 2026-05-08 15:01 393K
20260508T12Z_MSC_RDPS_Rain-Accum1h_Sfc_RLatLon0.09_PT068H.grib2 2026-05-08 15:01 596K
20260508T12Z_MSC_RDPS_Rain-Accum_Sfc_RLatLon0.09_PT068H.grib2 2026-05-08 15:01 1.9M
20260508T12Z_MSC_RDPS_RelativeHumidity_AGL-2m_RLatLon0.09_PT068H.grib2 2026-05-08 15:01 1.0M
20260508T12Z_MSC_RDPS_RelativeHumidity_IsbL-0010_RLatLon0.09_PT068H.grib2 2026-05-08 15:01 571K
20260508T12Z_MSC_RDPS_RelativeHumidity_IsbL-0020_RLatLon0.09_PT068H.grib2 2026-05-08 15:01 635K
20260508T12Z_MSC_RDPS_RelativeHumidity_IsbL-0030_RLatLon0.09_PT068H.grib2 2026-05-08 15:01 627K
20260508T12Z_MSC_RDPS_RelativeHumidity_IsbL-0050_RLatLon0.09_PT068H.grib2 2026-05-08 15:01 351K
20260508T12Z_MSC_RDPS_RelativeHumidity_IsbL-0100_RLatLon0.09_PT068H.grib2 2026-05-08 15:01 274K
20260508T12Z_MSC_RDPS_RelativeHumidity_IsbL-0150_RLatLon0.09_PT068H.grib2 2026-05-08 15:01 411K
20260508T12Z_MSC_RDPS_RelativeHumidity_IsbL-0175_RLatLon0.09_PT068H.grib2 2026-05-08 15:01 472K
20260508T12Z_MSC_RDPS_RelativeHumidity_IsbL-0200_RLatLon0.09_PT068H.grib2 2026-05-08 15:01 541K
20260508T12Z_MSC_RDPS_RelativeHumidity_IsbL-0225_RLatLon0.09_PT068H.grib2 2026-05-08 15:01 619K
20260508T12Z_MSC_RDPS_RelativeHumidity_IsbL-0250_RLatLon0.09_PT068H.grib2 2026-05-08 15:01 706K
20260508T12Z_MSC_RDPS_RelativeHumidity_IsbL-0275_RLatLon0.09_PT068H.grib2 2026-05-08 15:01 734K
20260508T12Z_MSC_RDPS_RelativeHumidity_IsbL-0300_RLatLon0.09_PT068H.grib2 2026-05-08 15:01 773K
20260508T12Z_MSC_RDPS_RelativeHumidity_IsbL-0350_RLatLon0.09_PT068H.grib2 2026-05-08 15:01 782K
20260508T12Z_MSC_RDPS_RelativeHumidity_IsbL-0400_RLatLon0.09_PT068H.grib2 2026-05-08 15:01 799K
20260508T12Z_MSC_RDPS_RelativeHumidity_IsbL-0450_RLatLon0.09_PT068H.grib2 2026-05-08 15:01 812K
20260508T12Z_MSC_RDPS_RelativeHumidity_IsbL-0500_RLatLon0.09_PT068H.grib2 2026-05-08 15:01 818K
20260508T12Z_MSC_RDPS_RelativeHumidity_IsbL-0550_RLatLon0.09_PT068H.grib2 2026-05-08 15:01 833K
20260508T12Z_MSC_RDPS_RelativeHumidity_IsbL-0600_RLatLon0.09_PT068H.grib2 2026-05-08 15:01 864K
20260508T12Z_MSC_RDPS_RelativeHumidity_IsbL-0650_RLatLon0.09_PT068H.grib2 2026-05-08 15:01 866K
20260508T12Z_MSC_RDPS_RelativeHumidity_IsbL-0700_RLatLon0.09_PT068H.grib2 2026-05-08 15:01 894K
20260508T12Z_MSC_RDPS_RelativeHumidity_IsbL-0750_RLatLon0.09_PT068H.grib2 2026-05-08 15:01 925K
20260508T12Z_MSC_RDPS_RelativeHumidity_IsbL-0800_RLatLon0.09_PT068H.grib2 2026-05-08 15:01 1.0M
20260508T12Z_MSC_RDPS_RelativeHumidity_IsbL-0850_RLatLon0.09_PT068H.grib2 2026-05-08 15:01 1.0M
20260508T12Z_MSC_RDPS_RelativeHumidity_IsbL-0875_RLatLon0.09_PT068H.grib2 2026-05-08 15:01 1.0M
20260508T12Z_MSC_RDPS_RelativeHumidity_IsbL-0900_RLatLon0.09_PT068H.grib2 2026-05-08 15:01 1.0M
20260508T12Z_MSC_RDPS_RelativeHumidity_IsbL-0925_RLatLon0.09_PT068H.grib2 2026-05-08 15:01 1.0M
20260508T12Z_MSC_RDPS_RelativeHumidity_IsbL-0950_RLatLon0.09_PT068H.grib2 2026-05-08 15:01 1.1M
20260508T12Z_MSC_RDPS_RelativeHumidity_IsbL-0970_RLatLon0.09_PT068H.grib2 2026-05-08 15:01 1.0M
20260508T12Z_MSC_RDPS_RelativeHumidity_IsbL-0985_RLatLon0.09_PT068H.grib2 2026-05-08 15:01 1.0M
20260508T12Z_MSC_RDPS_RelativeHumidity_IsbL-1000_RLatLon0.09_PT068H.grib2 2026-05-08 15:01 1.0M
20260508T12Z_MSC_RDPS_RelativeHumidity_IsbL-1015_RLatLon0.09_PT068H.grib2 2026-05-08 15:01 1.0M
20260508T12Z_MSC_RDPS_Runoff-Accum_Sfc_RLatLon0.09_PT068H.grib2 2026-05-08 15:01 48K
20260508T12Z_MSC_RDPS_SWEATIndex_Sfc_RLatLon0.09_PT068H.grib2 2026-05-08 15:01 2.5M
20260508T12Z_MSC_RDPS_SeeingIndex_EAtm_RLatLon0.09_PT068H.grib2 2026-05-08 15:01 1.1M
20260508T12Z_MSC_RDPS_SensibleHeatNetFlux_Sfc_RLatLon0.09_PT068H.grib2 2026-05-08 15:01 214K
20260508T12Z_MSC_RDPS_ShowalterIndex_IsbL-0500_RLatLon0.09_PT068H.grib2 2026-05-08 15:01 2.6M
20260508T12Z_MSC_RDPS_SkyTransparencyIndex_EAtm_RLatLon0.09_PT068H.grib2 2026-05-08 15:01 689K
20260508T12Z_MSC_RDPS_Snow-Accum1h_Sfc_RLatLon0.09_PT068H.grib2 2026-05-08 15:01 421K
20260508T12Z_MSC_RDPS_Snow-Accum_Sfc_RLatLon0.09_PT068H.grib2 2026-05-08 15:01 674K
20260508T12Z_MSC_RDPS_SnowDensity_Sfc_RLatLon0.09_PT068H.grib2 2026-05-08 15:01 170K
20260508T12Z_MSC_RDPS_SnowDepth_Sfc_RLatLon0.09_PT068H.grib2 2026-05-08 15:01 617K
20260508T12Z_MSC_RDPS_SoilTemp_DBS-0to10cm_RLatLon0.09_PT068H.grib2 2026-05-08 15:01 241K
20260508T12Z_MSC_RDPS_SoilTemp_Sfc_RLatLon0.09_PT068H.grib2 2026-05-08 15:01 269K
20260508T12Z_MSC_RDPS_SoilVolumetricIceContent_Sfc_RLatLon0.09_PT068H.grib2 2026-05-08 15:01 141K
20260508T12Z_MSC_RDPS_SoilVolumetricWaterContent_DBS-0to10cm_RLatLon0.09_PT068H.grib2 2026-05-08 15:01 295K
20260508T12Z_MSC_RDPS_SoilVolumetricWaterContent_DBS-0to1cm_RLatLon0.09_PT068H.grib2 2026-05-08 15:01 346K
20260508T12Z_MSC_RDPS_SpecificHumidity_AGL-120m_RLatLon0.09_PT068H.grib2 2026-05-08 15:01 498K
20260508T12Z_MSC_RDPS_SpecificHumidity_AGL-2m_RLatLon0.09_PT068H.grib2 2026-05-08 15:01 667K
20260508T12Z_MSC_RDPS_SpecificHumidity_AGL-40m_RLatLon0.09_PT068H.grib2 2026-05-08 15:01 503K
20260508T12Z_MSC_RDPS_SpecificHumidity_AGL-80m_RLatLon0.09_PT068H.grib2 2026-05-08 15:01 499K
20260508T12Z_MSC_RDPS_SpecificHumidity_IsbL-0001_RLatLon0.09_PT068H.grib2 2026-05-08 15:01 357K
20260508T12Z_MSC_RDPS_SpecificHumidity_IsbL-0005_RLatLon0.09_PT068H.grib2 2026-05-08 15:01 362K
20260508T12Z_MSC_RDPS_SpecificHumidity_IsbL-0010_RLatLon0.09_PT068H.grib2 2026-05-08 15:01 388K
20260508T12Z_MSC_RDPS_SpecificHumidity_IsbL-0020_RLatLon0.09_PT068H.grib2 2026-05-08 15:01 488K
20260508T12Z_MSC_RDPS_SpecificHumidity_IsbL-0030_RLatLon0.09_PT068H.grib2 2026-05-08 15:01 365K
20260508T12Z_MSC_RDPS_SpecificHumidity_IsbL-0050_RLatLon0.09_PT068H.grib2 2026-05-08 15:01 365K
20260508T12Z_MSC_RDPS_SpecificHumidity_IsbL-0100_RLatLon0.09_PT068H.grib2 2026-05-08 15:01 399K
20260508T12Z_MSC_RDPS_SpecificHumidity_IsbL-0150_RLatLon0.09_PT068H.grib2 2026-05-08 15:01 441K
20260508T12Z_MSC_RDPS_SpecificHumidity_IsbL-0175_RLatLon0.09_PT068H.grib2 2026-05-08 15:01 433K
20260508T12Z_MSC_RDPS_SpecificHumidity_IsbL-0200_RLatLon0.09_PT068H.grib2 2026-05-08 15:01 452K
20260508T12Z_MSC_RDPS_SpecificHumidity_IsbL-0225_RLatLon0.09_PT068H.grib2 2026-05-08 15:01 461K
20260508T12Z_MSC_RDPS_SpecificHumidity_IsbL-0250_RLatLon0.09_PT068H.grib2 2026-05-08 15:01 534K
20260508T12Z_MSC_RDPS_SpecificHumidity_IsbL-0275_RLatLon0.09_PT068H.grib2 2026-05-08 15:01 491K
20260508T12Z_MSC_RDPS_SpecificHumidity_IsbL-0300_RLatLon0.09_PT068H.grib2 2026-05-08 15:01 462K
20260508T12Z_MSC_RDPS_SpecificHumidity_IsbL-0350_RLatLon0.09_PT068H.grib2 2026-05-08 15:01 453K
20260508T12Z_MSC_RDPS_SpecificHumidity_IsbL-0400_RLatLon0.09_PT068H.grib2 2026-05-08 15:01 537K
20260508T12Z_MSC_RDPS_SpecificHumidity_IsbL-0450_RLatLon0.09_PT068H.grib2 2026-05-08 15:01 596K
20260508T12Z_MSC_RDPS_SpecificHumidity_IsbL-0500_RLatLon0.09_PT068H.grib2 2026-05-08 15:01 532K
20260508T12Z_MSC_RDPS_SpecificHumidity_IsbL-0550_RLatLon0.09_PT068H.grib2 2026-05-08 15:01 604K
20260508T12Z_MSC_RDPS_SpecificHumidity_IsbL-0600_RLatLon0.09_PT068H.grib2 2026-05-08 15:01 659K
20260508T12Z_MSC_RDPS_SpecificHumidity_IsbL-0650_RLatLon0.09_PT068H.grib2 2026-05-08 15:01 575K
20260508T12Z_MSC_RDPS_SpecificHumidity_IsbL-0700_RLatLon0.09_PT068H.grib2 2026-05-08 15:01 616K
20260508T12Z_MSC_RDPS_SpecificHumidity_IsbL-0750_RLatLon0.09_PT068H.grib2 2026-05-08 15:01 666K
20260508T12Z_MSC_RDPS_SpecificHumidity_IsbL-0800_RLatLon0.09_PT068H.grib2 2026-05-08 15:01 748K
20260508T12Z_MSC_RDPS_SpecificHumidity_IsbL-0850_RLatLon0.09_PT068H.grib2 2026-05-08 15:01 816K
20260508T12Z_MSC_RDPS_SpecificHumidity_IsbL-0875_RLatLon0.09_PT068H.grib2 2026-05-08 15:01 834K
20260508T12Z_MSC_RDPS_SpecificHumidity_IsbL-0900_RLatLon0.09_PT068H.grib2 2026-05-08 15:01 841K
20260508T12Z_MSC_RDPS_SpecificHumidity_IsbL-0925_RLatLon0.09_PT068H.grib2 2026-05-08 15:01 844K
20260508T12Z_MSC_RDPS_SpecificHumidity_IsbL-0950_RLatLon0.09_PT068H.grib2 2026-05-08 15:01 849K
20260508T12Z_MSC_RDPS_SpecificHumidity_IsbL-0970_RLatLon0.09_PT068H.grib2 2026-05-08 15:01 703K
20260508T12Z_MSC_RDPS_SpecificHumidity_IsbL-0985_RLatLon0.09_PT068H.grib2 2026-05-08 15:01 695K
20260508T12Z_MSC_RDPS_SpecificHumidity_IsbL-1000_RLatLon0.09_PT068H.grib2 2026-05-08 15:01 689K
20260508T12Z_MSC_RDPS_SpecificHumidity_IsbL-1015_RLatLon0.09_PT068H.grib2 2026-05-08 15:01 681K
20260508T12Z_MSC_RDPS_SpecificHumidity_Sfc_RLatLon0.09_PT068H.grib2 2026-05-08 15:01 311K
20260508T12Z_MSC_RDPS_StormRelativeHelicity_EtaL-10000_RLatLon0.09_PT068H.grib2 2026-05-08 15:01 1.1M
20260508T12Z_MSC_RDPS_StormSeverityIndex_EtaL-10000_RLatLon0.09_PT068H.grib2 2026-05-08 15:01 1.2M
20260508T12Z_MSC_RDPS_Thickness_IsbL-0850to0700_RLatLon0.09_PT068H.grib2 2026-05-08 15:01 249K
20260508T12Z_MSC_RDPS_Thickness_IsbL-1000to0500_RLatLon0.09_PT068H.grib2 2026-05-08 15:01 193K
20260508T12Z_MSC_RDPS_Thickness_IsbL-1000to0850_RLatLon0.09_PT068H.grib2 2026-05-08 15:01 259K
20260508T12Z_MSC_RDPS_TotalCloudCover_Sfc_RLatLon0.09_PT068H.grib2 2026-05-08 15:01 681K
20260508T12Z_MSC_RDPS_TotalTotalsIndex_Sfc_RLatLon0.09_PT068H.grib2 2026-05-08 15:01 2.4M
20260508T12Z_MSC_RDPS_UVIndex-ClearSky_Sfc_RLatLon0.09_PT068H.grib2 2026-05-08 15:01 112K
20260508T12Z_MSC_RDPS_UVIndex_Sfc_RLatLon0.09_PT068H.grib2 2026-05-08 15:01 201K
20260508T12Z_MSC_RDPS_UpwardLongwaveRadiationFlux_NTAtm_RLatLon0.09_PT068H.grib2 2026-05-08 15:01 493K
20260508T12Z_MSC_RDPS_UpwardShortwaveRadiationFlux_NTAtm_RLatLon0.09_PT068H.grib2 2026-05-08 15:01 159K
20260508T12Z_MSC_RDPS_VerticalVelocity_IsbL-0250_RLatLon0.09_PT068H.grib2 2026-05-08 15:01 570K
20260508T12Z_MSC_RDPS_VerticalVelocity_IsbL-0500_RLatLon0.09_PT068H.grib2 2026-05-08 15:01 540K
20260508T12Z_MSC_RDPS_VerticalVelocity_IsbL-0700_RLatLon0.09_PT068H.grib2 2026-05-08 15:01 593K
20260508T12Z_MSC_RDPS_VerticalVelocity_IsbL-0850_RLatLon0.09_PT068H.grib2 2026-05-08 15:01 524K
20260508T12Z_MSC_RDPS_VerticalWindShear_EtaL-6500_RLatLon0.09_PT068H.grib2 2026-05-08 15:01 1.2M
20260508T12Z_MSC_RDPS_WindChill_Sfc_RLatLon0.09_PT068H.grib2 2026-05-08 15:01 1.2M
20260508T12Z_MSC_RDPS_WindDir_AGL-10m_RLatLon0.09_PT068H.grib2 2026-05-08 15:01 1.0M
20260508T12Z_MSC_RDPS_WindDir_AGL-120m_RLatLon0.09_PT068H.grib2 2026-05-08 15:01 608K
20260508T12Z_MSC_RDPS_WindDir_AGL-40m_RLatLon0.09_PT068H.grib2 2026-05-08 15:01 643K
20260508T12Z_MSC_RDPS_WindDir_AGL-80m_RLatLon0.09_PT068H.grib2 2026-05-08 15:01 622K
20260508T12Z_MSC_RDPS_WindDir_IsbL-0001_RLatLon0.09_PT068H.grib2 2026-05-08 15:01 285K
20260508T12Z_MSC_RDPS_WindDir_IsbL-0005_RLatLon0.09_PT068H.grib2 2026-05-08 15:01 374K
20260508T12Z_MSC_RDPS_WindDir_IsbL-0010_RLatLon0.09_PT068H.grib2 2026-05-08 15:01 401K
20260508T12Z_MSC_RDPS_WindDir_IsbL-0020_RLatLon0.09_PT068H.grib2 2026-05-08 15:01 447K
20260508T12Z_MSC_RDPS_WindDir_IsbL-0030_RLatLon0.09_PT068H.grib2 2026-05-08 15:01 446K
20260508T12Z_MSC_RDPS_WindDir_IsbL-0050_RLatLon0.09_PT068H.grib2 2026-05-08 15:01 445K
20260508T12Z_MSC_RDPS_WindDir_IsbL-0100_RLatLon0.09_PT068H.grib2 2026-05-08 15:01 430K
20260508T12Z_MSC_RDPS_WindDir_IsbL-0150_RLatLon0.09_PT068H.grib2 2026-05-08 15:01 421K
20260508T12Z_MSC_RDPS_WindDir_IsbL-0175_RLatLon0.09_PT068H.grib2 2026-05-08 15:01 444K
20260508T12Z_MSC_RDPS_WindDir_IsbL-0200_RLatLon0.09_PT068H.grib2 2026-05-08 15:01 459K
20260508T12Z_MSC_RDPS_WindDir_IsbL-0225_RLatLon0.09_PT068H.grib2 2026-05-08 15:01 459K
20260508T12Z_MSC_RDPS_WindDir_IsbL-0250_RLatLon0.09_PT068H.grib2 2026-05-08 15:01 464K
20260508T12Z_MSC_RDPS_WindDir_IsbL-0275_RLatLon0.09_PT068H.grib2 2026-05-08 15:01 488K
20260508T12Z_MSC_RDPS_WindDir_IsbL-0300_RLatLon0.09_PT068H.grib2 2026-05-08 15:01 489K
20260508T12Z_MSC_RDPS_WindDir_IsbL-0350_RLatLon0.09_PT068H.grib2 2026-05-08 15:01 511K
20260508T12Z_MSC_RDPS_WindDir_IsbL-0400_RLatLon0.09_PT068H.grib2 2026-05-08 15:01 533K
20260508T12Z_MSC_RDPS_WindDir_IsbL-0450_RLatLon0.09_PT068H.grib2 2026-05-08 15:01 554K
20260508T12Z_MSC_RDPS_WindDir_IsbL-0500_RLatLon0.09_PT068H.grib2 2026-05-08 15:01 574K
20260508T12Z_MSC_RDPS_WindDir_IsbL-0550_RLatLon0.09_PT068H.grib2 2026-05-08 15:01 582K
20260508T12Z_MSC_RDPS_WindDir_IsbL-0600_RLatLon0.09_PT068H.grib2 2026-05-08 15:01 602K
20260508T12Z_MSC_RDPS_WindDir_IsbL-0650_RLatLon0.09_PT068H.grib2 2026-05-08 15:01 638K
20260508T12Z_MSC_RDPS_WindDir_IsbL-0700_RLatLon0.09_PT068H.grib2 2026-05-08 15:01 675K
20260508T12Z_MSC_RDPS_WindDir_IsbL-0750_RLatLon0.09_PT068H.grib2 2026-05-08 15:01 713K
20260508T12Z_MSC_RDPS_WindDir_IsbL-0800_RLatLon0.09_PT068H.grib2 2026-05-08 15:01 784K
20260508T12Z_MSC_RDPS_WindDir_IsbL-0850_RLatLon0.09_PT068H.grib2 2026-05-08 15:01 863K
20260508T12Z_MSC_RDPS_WindDir_IsbL-0875_RLatLon0.09_PT068H.grib2 2026-05-08 15:01 888K
20260508T12Z_MSC_RDPS_WindDir_IsbL-0900_RLatLon0.09_PT068H.grib2 2026-05-08 15:01 906K
20260508T12Z_MSC_RDPS_WindDir_IsbL-0925_RLatLon0.09_PT068H.grib2 2026-05-08 15:01 917K
20260508T12Z_MSC_RDPS_WindDir_IsbL-0950_RLatLon0.09_PT068H.grib2 2026-05-08 15:01 921K
20260508T12Z_MSC_RDPS_WindDir_IsbL-0970_RLatLon0.09_PT068H.grib2 2026-05-08 15:01 923K
20260508T12Z_MSC_RDPS_WindDir_IsbL-0985_RLatLon0.09_PT068H.grib2 2026-05-08 15:01 930K
20260508T12Z_MSC_RDPS_WindDir_IsbL-1000_RLatLon0.09_PT068H.grib2 2026-05-08 15:01 951K
20260508T12Z_MSC_RDPS_WindDir_IsbL-1015_RLatLon0.09_PT068H.grib2 2026-05-08 15:01 972K
20260508T12Z_MSC_RDPS_WindGust-Max_AGL-10m_RLatLon0.09_PT068H.grib2 2026-05-08 15:01 1.0M
20260508T12Z_MSC_RDPS_WindGust-Min_AGL-10m_RLatLon0.09_PT068H.grib2 2026-05-08 15:01 972K
20260508T12Z_MSC_RDPS_WindGust_AGL-10m_RLatLon0.09_PT068H.grib2 2026-05-08 15:01 1.0M
20260508T12Z_MSC_RDPS_WindSpeed_AGL-10m_RLatLon0.09_PT068H.grib2 2026-05-08 15:01 843K
20260508T12Z_MSC_RDPS_WindSpeed_AGL-120m_RLatLon0.09_PT068H.grib2 2026-05-08 15:01 552K
20260508T12Z_MSC_RDPS_WindSpeed_AGL-40m_RLatLon0.09_PT068H.grib2 2026-05-08 15:01 543K
20260508T12Z_MSC_RDPS_WindSpeed_AGL-80m_RLatLon0.09_PT068H.grib2 2026-05-08 15:01 553K
20260508T12Z_MSC_RDPS_WindSpeed_IsbL-0001_RLatLon0.09_PT068H.grib2 2026-05-08 15:01 252K
20260508T12Z_MSC_RDPS_WindSpeed_IsbL-0005_RLatLon0.09_PT068H.grib2 2026-05-08 15:01 350K
20260508T12Z_MSC_RDPS_WindSpeed_IsbL-0010_RLatLon0.09_PT068H.grib2 2026-05-08 15:01 367K
20260508T12Z_MSC_RDPS_WindSpeed_IsbL-0020_RLatLon0.09_PT068H.grib2 2026-05-08 15:01 327K
20260508T12Z_MSC_RDPS_WindSpeed_IsbL-0030_RLatLon0.09_PT068H.grib2 2026-05-08 15:01 323K
20260508T12Z_MSC_RDPS_WindSpeed_IsbL-0050_RLatLon0.09_PT068H.grib2 2026-05-08 15:01 450K
20260508T12Z_MSC_RDPS_WindSpeed_IsbL-0100_RLatLon0.09_PT068H.grib2 2026-05-08 15:01 469K
20260508T12Z_MSC_RDPS_WindSpeed_IsbL-0150_RLatLon0.09_PT068H.grib2 2026-05-08 15:01 369K
20260508T12Z_MSC_RDPS_WindSpeed_IsbL-0175_RLatLon0.09_PT068H.grib2 2026-05-08 15:01 416K
20260508T12Z_MSC_RDPS_WindSpeed_IsbL-0200_RLatLon0.09_PT068H.grib2 2026-05-08 15:01 433K
20260508T12Z_MSC_RDPS_WindSpeed_IsbL-0225_RLatLon0.09_PT068H.grib2 2026-05-08 15:01 443K
20260508T12Z_MSC_RDPS_WindSpeed_IsbL-0250_RLatLon0.09_PT068H.grib2 2026-05-08 15:01 447K
20260508T12Z_MSC_RDPS_WindSpeed_IsbL-0275_RLatLon0.09_PT068H.grib2 2026-05-08 15:01 469K
20260508T12Z_MSC_RDPS_WindSpeed_IsbL-0300_RLatLon0.09_PT068H.grib2 2026-05-08 15:01 468K
20260508T12Z_MSC_RDPS_WindSpeed_IsbL-0350_RLatLon0.09_PT068H.grib2 2026-05-08 15:01 475K
20260508T12Z_MSC_RDPS_WindSpeed_IsbL-0400_RLatLon0.09_PT068H.grib2 2026-05-08 15:01 480K
20260508T12Z_MSC_RDPS_WindSpeed_IsbL-0450_RLatLon0.09_PT068H.grib2 2026-05-08 15:01 465K
20260508T12Z_MSC_RDPS_WindSpeed_IsbL-0500_RLatLon0.09_PT068H.grib2 2026-05-08 15:01 466K
20260508T12Z_MSC_RDPS_WindSpeed_IsbL-0550_RLatLon0.09_PT068H.grib2 2026-05-08 15:01 585K
20260508T12Z_MSC_RDPS_WindSpeed_IsbL-0600_RLatLon0.09_PT068H.grib2 2026-05-08 15:01 595K
20260508T12Z_MSC_RDPS_WindSpeed_IsbL-0650_RLatLon0.09_PT068H.grib2 2026-05-08 15:01 612K
20260508T12Z_MSC_RDPS_WindSpeed_IsbL-0700_RLatLon0.09_PT068H.grib2 2026-05-08 15:01 679K
20260508T12Z_MSC_RDPS_WindSpeed_IsbL-0750_RLatLon0.09_PT068H.grib2 2026-05-08 15:01 707K
20260508T12Z_MSC_RDPS_WindSpeed_IsbL-0800_RLatLon0.09_PT068H.grib2 2026-05-08 15:01 758K
20260508T12Z_MSC_RDPS_WindSpeed_IsbL-0850_RLatLon0.09_PT068H.grib2 2026-05-08 15:01 818K
20260508T12Z_MSC_RDPS_WindSpeed_IsbL-0875_RLatLon0.09_PT068H.grib2 2026-05-08 15:01 839K
20260508T12Z_MSC_RDPS_WindSpeed_IsbL-0900_RLatLon0.09_PT068H.grib2 2026-05-08 15:01 853K
20260508T12Z_MSC_RDPS_WindSpeed_IsbL-0925_RLatLon0.09_PT068H.grib2 2026-05-08 15:01 865K
20260508T12Z_MSC_RDPS_WindSpeed_IsbL-0950_RLatLon0.09_PT068H.grib2 2026-05-08 15:01 866K
20260508T12Z_MSC_RDPS_WindSpeed_IsbL-0970_RLatLon0.09_PT068H.grib2 2026-05-08 15:01 858K
20260508T12Z_MSC_RDPS_WindSpeed_IsbL-0985_RLatLon0.09_PT068H.grib2 2026-05-08 15:01 853K
20260508T12Z_MSC_RDPS_WindSpeed_IsbL-1000_RLatLon0.09_PT068H.grib2 2026-05-08 15:01 848K
20260508T12Z_MSC_RDPS_WindSpeed_IsbL-1015_RLatLon0.09_PT068H.grib2 2026-05-08 15:01 843K
20260508T12Z_MSC_RDPS_WindU_AGL-10m_RLatLon0.09_PT068H.grib2 2026-05-08 15:01 434K
20260508T12Z_MSC_RDPS_WindU_AGL-120m_RLatLon0.09_PT068H.grib2 2026-05-08 15:01 421K
20260508T12Z_MSC_RDPS_WindU_AGL-40m_RLatLon0.09_PT068H.grib2 2026-05-08 15:01 541K
20260508T12Z_MSC_RDPS_WindU_AGL-80m_RLatLon0.09_PT068H.grib2 2026-05-08 15:01 539K
20260508T12Z_MSC_RDPS_WindU_IsbL-0001_RLatLon0.09_PT068H.grib2 2026-05-08 15:01 292K
20260508T12Z_MSC_RDPS_WindU_IsbL-0005_RLatLon0.09_PT068H.grib2 2026-05-08 15:01 287K
20260508T12Z_MSC_RDPS_WindU_IsbL-0010_RLatLon0.09_PT068H.grib2 2026-05-08 15:01 298K
20260508T12Z_MSC_RDPS_WindU_IsbL-0020_RLatLon0.09_PT068H.grib2 2026-05-08 15:01 355K
20260508T12Z_MSC_RDPS_WindU_IsbL-0030_RLatLon0.09_PT068H.grib2 2026-05-08 15:01 353K
20260508T12Z_MSC_RDPS_WindU_IsbL-0050_RLatLon0.09_PT068H.grib2 2026-05-08 15:01 339K
20260508T12Z_MSC_RDPS_WindU_IsbL-0100_RLatLon0.09_PT068H.grib2 2026-05-08 15:01 425K
20260508T12Z_MSC_RDPS_WindU_IsbL-0150_RLatLon0.09_PT068H.grib2 2026-05-08 15:01 387K
20260508T12Z_MSC_RDPS_WindU_IsbL-0175_RLatLon0.09_PT068H.grib2 2026-05-08 15:01 410K
20260508T12Z_MSC_RDPS_WindU_IsbL-0200_RLatLon0.09_PT068H.grib2 2026-05-08 15:01 427K
20260508T12Z_MSC_RDPS_WindU_IsbL-0225_RLatLon0.09_PT068H.grib2 2026-05-08 15:01 435K
20260508T12Z_MSC_RDPS_WindU_IsbL-0250_RLatLon0.09_PT068H.grib2 2026-05-08 15:01 439K
20260508T12Z_MSC_RDPS_WindU_IsbL-0275_RLatLon0.09_PT068H.grib2 2026-05-08 15:01 358K
20260508T12Z_MSC_RDPS_WindU_IsbL-0300_RLatLon0.09_PT068H.grib2 2026-05-08 15:01 457K
20260508T12Z_MSC_RDPS_WindU_IsbL-0350_RLatLon0.09_PT068H.grib2 2026-05-08 15:01 463K
20260508T12Z_MSC_RDPS_WindU_IsbL-0400_RLatLon0.09_PT068H.grib2 2026-05-08 15:01 469K
20260508T12Z_MSC_RDPS_WindU_IsbL-0450_RLatLon0.09_PT068H.grib2 2026-05-08 15:01 471K
20260508T12Z_MSC_RDPS_WindU_IsbL-0500_RLatLon0.09_PT068H.grib2 2026-05-08 15:01 473K
20260508T12Z_MSC_RDPS_WindU_IsbL-0550_RLatLon0.09_PT068H.grib2 2026-05-08 15:01 456K
20260508T12Z_MSC_RDPS_WindU_IsbL-0600_RLatLon0.09_PT068H.grib2 2026-05-08 15:01 465K
20260508T12Z_MSC_RDPS_WindU_IsbL-0650_RLatLon0.09_PT068H.grib2 2026-05-08 15:01 482K
20260508T12Z_MSC_RDPS_WindU_IsbL-0700_RLatLon0.09_PT068H.grib2 2026-05-08 15:01 504K
20260508T12Z_MSC_RDPS_WindU_IsbL-0750_RLatLon0.09_PT068H.grib2 2026-05-08 15:01 530K
20260508T12Z_MSC_RDPS_WindU_IsbL-0800_RLatLon0.09_PT068H.grib2 2026-05-08 15:01 574K
20260508T12Z_MSC_RDPS_WindU_IsbL-0850_RLatLon0.09_PT068H.grib2 2026-05-08 15:01 626K
20260508T12Z_MSC_RDPS_WindU_IsbL-0875_RLatLon0.09_PT068H.grib2 2026-05-08 15:01 644K
20260508T12Z_MSC_RDPS_WindU_IsbL-0900_RLatLon0.09_PT068H.grib2 2026-05-08 15:01 655K
20260508T12Z_MSC_RDPS_WindU_IsbL-0925_RLatLon0.09_PT068H.grib2 2026-05-08 15:01 662K
20260508T12Z_MSC_RDPS_WindU_IsbL-0950_RLatLon0.09_PT068H.grib2 2026-05-08 15:01 661K
20260508T12Z_MSC_RDPS_WindU_IsbL-0970_RLatLon0.09_PT068H.grib2 2026-05-08 15:01 795K
20260508T12Z_MSC_RDPS_WindU_IsbL-0985_RLatLon0.09_PT068H.grib2 2026-05-08 15:01 789K
20260508T12Z_MSC_RDPS_WindU_IsbL-1000_RLatLon0.09_PT068H.grib2 2026-05-08 15:01 785K
20260508T12Z_MSC_RDPS_WindU_IsbL-1015_RLatLon0.09_PT068H.grib2 2026-05-08 15:01 782K
20260508T12Z_MSC_RDPS_WindV_AGL-10m_RLatLon0.09_PT068H.grib2 2026-05-08 15:01 430K
20260508T12Z_MSC_RDPS_WindV_AGL-120m_RLatLon0.09_PT068H.grib2 2026-05-08 15:01 534K
20260508T12Z_MSC_RDPS_WindV_AGL-40m_RLatLon0.09_PT068H.grib2 2026-05-08 15:01 536K
20260508T12Z_MSC_RDPS_WindV_AGL-80m_RLatLon0.09_PT068H.grib2 2026-05-08 15:01 535K
20260508T12Z_MSC_RDPS_WindV_IsbL-0001_RLatLon0.09_PT068H.grib2 2026-05-08 15:01 246K
20260508T12Z_MSC_RDPS_WindV_IsbL-0005_RLatLon0.09_PT068H.grib2 2026-05-08 15:01 375K
20260508T12Z_MSC_RDPS_WindV_IsbL-0010_RLatLon0.09_PT068H.grib2 2026-05-08 15:01 299K
20260508T12Z_MSC_RDPS_WindV_IsbL-0020_RLatLon0.09_PT068H.grib2 2026-05-08 15:01 319K
20260508T12Z_MSC_RDPS_WindV_IsbL-0030_RLatLon0.09_PT068H.grib2 2026-05-08 15:01 315K
20260508T12Z_MSC_RDPS_WindV_IsbL-0050_RLatLon0.09_PT068H.grib2 2026-05-08 15:01 339K
20260508T12Z_MSC_RDPS_WindV_IsbL-0100_RLatLon0.09_PT068H.grib2 2026-05-08 15:01 422K
20260508T12Z_MSC_RDPS_WindV_IsbL-0150_RLatLon0.09_PT068H.grib2 2026-05-08 15:01 385K
20260508T12Z_MSC_RDPS_WindV_IsbL-0175_RLatLon0.09_PT068H.grib2 2026-05-08 15:01 409K
20260508T12Z_MSC_RDPS_WindV_IsbL-0200_RLatLon0.09_PT068H.grib2 2026-05-08 15:01 328K
20260508T12Z_MSC_RDPS_WindV_IsbL-0225_RLatLon0.09_PT068H.grib2 2026-05-08 15:01 333K
20260508T12Z_MSC_RDPS_WindV_IsbL-0250_RLatLon0.09_PT068H.grib2 2026-05-08 15:01 337K
20260508T12Z_MSC_RDPS_WindV_IsbL-0275_RLatLon0.09_PT068H.grib2 2026-05-08 15:01 355K
20260508T12Z_MSC_RDPS_WindV_IsbL-0300_RLatLon0.09_PT068H.grib2 2026-05-08 15:01 352K
20260508T12Z_MSC_RDPS_WindV_IsbL-0350_RLatLon0.09_PT068H.grib2 2026-05-08 15:01 359K
20260508T12Z_MSC_RDPS_WindV_IsbL-0400_RLatLon0.09_PT068H.grib2 2026-05-08 15:01 466K
20260508T12Z_MSC_RDPS_WindV_IsbL-0450_RLatLon0.09_PT068H.grib2 2026-05-08 15:01 468K
20260508T12Z_MSC_RDPS_WindV_IsbL-0500_RLatLon0.09_PT068H.grib2 2026-05-08 15:01 470K
20260508T12Z_MSC_RDPS_WindV_IsbL-0550_RLatLon0.09_PT068H.grib2 2026-05-08 15:01 470K
20260508T12Z_MSC_RDPS_WindV_IsbL-0600_RLatLon0.09_PT068H.grib2 2026-05-08 15:01 478K
20260508T12Z_MSC_RDPS_WindV_IsbL-0650_RLatLon0.09_PT068H.grib2 2026-05-08 15:01 478K
20260508T12Z_MSC_RDPS_WindV_IsbL-0700_RLatLon0.09_PT068H.grib2 2026-05-08 15:01 499K
20260508T12Z_MSC_RDPS_WindV_IsbL-0750_RLatLon0.09_PT068H.grib2 2026-05-08 15:01 524K
20260508T12Z_MSC_RDPS_WindV_IsbL-0800_RLatLon0.09_PT068H.grib2 2026-05-08 15:01 569K
20260508T12Z_MSC_RDPS_WindV_IsbL-0850_RLatLon0.09_PT068H.grib2 2026-05-08 15:01 621K
20260508T12Z_MSC_RDPS_WindV_IsbL-0875_RLatLon0.09_PT068H.grib2 2026-05-08 15:01 639K
20260508T12Z_MSC_RDPS_WindV_IsbL-0900_RLatLon0.09_PT068H.grib2 2026-05-08 15:01 650K
20260508T12Z_MSC_RDPS_WindV_IsbL-0925_RLatLon0.09_PT068H.grib2 2026-05-08 15:01 658K
20260508T12Z_MSC_RDPS_WindV_IsbL-0950_RLatLon0.09_PT068H.grib2 2026-05-08 15:01 657K
20260508T12Z_MSC_RDPS_WindV_IsbL-0970_RLatLon0.09_PT068H.grib2 2026-05-08 15:01 791K
20260508T12Z_MSC_RDPS_WindV_IsbL-0985_RLatLon0.09_PT068H.grib2 2026-05-08 15:01 786K
20260508T12Z_MSC_RDPS_WindV_IsbL-1000_RLatLon0.09_PT068H.grib2 2026-05-08 15:01 828K
20260508T12Z_MSC_RDPS_WindV_IsbL-1015_RLatLon0.09_PT068H.grib2 2026-05-08 15:01 823K